KC2DUX Weather Reports


Display with metric or nautical units.
time (UTC)temp
F
wind
direction
speed
MPH
gust
MPH
rain 1hr
in
rain 24hr
in
rain mn
in
humidity
%
barometer
mb
20260507151536 57 57 2.0 4.0 0.00 0.01 0.01 70 1011.2
20260507151034 57 338 1.0 4.0 0.00 0.01 0.01 69 1011.2
20260507150535 57 61 0.0 5.0 0.00 0.01 0.01 71 1011.1
20260507150040 57 20 1.0 5.0 0.00 0.01 0.01 69 1011.2
20260507145535 57 19 1.0 6.0 0.00 0.01 0.01 69 1011.2
20260507145034 57 15 2.0 6.0 0.00 0.01 0.01 69 1011.1
20260507144534 57 26 1.0 5.0 0.00 0.01 0.01 71 1011.1
20260507144034 56 19 2.0 5.0 0.00 0.01 0.01 69 1011.3
20260507143534 57 355 1.0 6.0 0.00 0.01 0.01 69 1011.3
20260507143040 57 14 3.0 8.0 0.00 0.01 0.01 68 1011.1
20260507142535 56 9 2.0 10.0 0.00 0.01 0.01 71 1011.1
20260507142032 56 28 4.0 10.0 0.00 0.01 0.01 71 1011.1
20260507141547 56 302 3.0 9.0 0.00 0.01 0.01 72 1011.1
20260507141032 56 341 3.0 9.0 0.00 0.01 0.01 71 1011.4
20260507140534 56 19 4.0 9.0 0.00 0.01 0.01 72 1011.4
20260507140032 56 38 1.0 10.0 0.00 0.01 0.01 73 1011.4
20260507135531 56 58 4.0 9.0 0.00 0.01 0.01 73 1011.6
20260507135035 56 65 2.0 9.0 0.00 0.01 0.01 74 1011.5
20260507134534 55 355 4.0 10.0 0.00 0.01 0.01 73 1011.5
20260507134030 55 355 3.0 10.0 0.00 0.01 0.01 74 1011.5
20260507133530 55 271 3.0 9.0 0.00 0.01 0.01 75 1011.5
20260507133045 55 15 2.0 9.0 0.00 0.01 0.01 75 1011.3
20260507132534 55 355 2.0 5.0 0.00 0.01 0.01 76 1011.4
20260507132028 54 28 2.0 5.0 0.00 0.01 0.01 77 1011.3
20260507131529 54 5 1.0 5.0 0.00 0.01 0.01 78 1011.3
20260507131028 54 5 2.0 9.0 0.00 0.01 0.01 77 1011.3
20260507130529 53 65 1.0 9.0 0.00 0.01 0.01 78 1011.5
20260507130029 53 42 1.0 6.0 0.00 0.01 0.01 79 1011.4
20260507125527 53 27 1.0 5.0 0.00 0.01 0.01 79 1011.5
20260507125026 53 9 2.0 5.0 0.00 0.01 0.01 79 1011.5
20260507124528 53 5 1.0 5.0 0.00 0.01 0.01 80 1011.3
20260507124025 53 22 2.0 5.0 0.00 0.01 0.01 80 1011.4
20260507123531 53 37 1.0 4.0 0.00 0.01 0.01 80 1011.3
20260507123035 53 41 1.0 4.0 0.00 0.01 0.01 80 1011.4
20260507122525 53 24 0.0 4.0 0.00 0.01 0.01 81 1011.3
20260507122025 53 333 1.0 4.0 0.00 0.01 0.01 81 1011.4
20260507121524 52 16 0.0 5.0 0.00 0.01 0.01 81 1011.4
20260507121023 52 13 1.0 5.0 0.00 0.01 0.01 81 1011.3
20260507120523 52 34 0.0 5.0 0.00 0.01 0.01 81 1011.1
20260507120024 52 16 0.0 5.0 0.00 0.01 0.01 81 1011.2
20260507115523 52 25 2.0 5.0 0.00 0.01 0.01 80 1011.2
20260507115022 52 31 2.0 4.0 0.00 0.01 0.01 81 1011.2
20260507114523 52 36 1.0 4.0 0.00 0.01 0.01 81 1011.1
20260507114023 52 355 0.0 4.0 0.00 0.01 0.01 81 1011.1
20260507113523 52 326 1.0 4.0 0.00 0.01 0.01 81 1011.0
20260507113023 52 17 1.0 4.0 0.00 0.01 0.01 81 1011.0
20260507112522 52 30 1.0 4.0 0.00 0.01 0.01 81 1010.9
20260507112024 52 28 1.0 2.0 0.00 0.01 0.01 81 1011.0
20260507111523 52 22 0.0 4.0 0.00 0.01 0.01 81 1011.1
20260507111021 52 20 1.0 8.0 0.00 0.01 0.01 80 1011.0
20260507110521 52 28 2.0 8.0 0.00 0.01 0.01 80 1011.1
20260507110024 52 10 0.0 3.0 0.00 0.01 0.01 81 1011.1
20260507105521 52 349 0.0 4.0 0.00 0.01 0.01 81 1011.1
20260507105019 52 31 2.0 5.0 0.00 0.01 0.01 81 1011.0
20260507104518 52 49 1.0 5.0 0.00 0.01 0.01 81 1010.7
20260507104018 52 37 1.0 5.0 0.00 0.01 0.01 82 1010.7
20260507103516 52 19 1.0 5.0 0.00 0.01 0.01 81 1010.7
20260507103016 52 15 1.0 5.0 0.00 0.01 0.01 82 1010.5
20260507102516 52 30 1.0 6.0 0.00 0.01 0.01 82 1010.4
20260507102016 52 24 2.0 6.0 0.00 0.01 0.01 82 1010.4
20260507101517 52 17 1.0 8.0 0.00 0.01 0.01 82 1010.4
20260507101015 52 335 3.0 8.0 0.00 0.01 0.01 82 1010.4
20260507100513 52 355 2.0 6.0 0.00 0.01 0.01 82 1010.3
20260507100020 52 343 1.0 6.0 0.00 0.01 0.01 82 1010.2
20260507095513 52 26 2.0 5.0 0.00 0.01 0.01 82 1010.1
20260507095012 52 350 2.0 9.0 0.00 0.01 0.01 82 1010.1
20260507094511 52 26 2.0 9.0 0.00 0.01 0.01 82 1009.9
20260507094018 52 29 3.0 8.0 0.00 0.01 0.01 82 1009.8
20260507093508 52 22 4.0 7.0 0.00 0.01 0.01 82 1009.8
20260507093009 52 13 2.0 10.0 0.00 0.01 0.01 82 1009.8
20260507092508 52 46 2.0 10.0 0.00 0.01 0.01 82 1009.7
20260507092008 52 36 1.0 10.0 0.00 0.01 0.01 83 1009.7
20260507091508 52 23 1.0 10.0 0.00 0.01 0.01 83 1009.7
20260507091005 52 14 2.0 9.0 0.00 0.01 0.01 83 1009.8
20260507090504 52 30 2.0 6.0 0.00 0.01 0.01 84 1009.5
20260507090009 52 18 3.0 11.0 0.00 0.01 0.01 84 1009.5
20260507085503 52 24 2.0 11.0 0.00 0.01 0.01 84 1009.7
20260507085002 52 48 2.0 10.0 0.00 0.01 0.01 85 1009.8
20260507084502 52 17 4.0 11.0 0.00 0.01 0.01 85 1009.6
20260507084002 52 340 3.0 12.0 0.00 0.01 0.01 85 1009.6
20260507083502 52 25 4.0 12.0 0.00 0.01 0.01 85 1009.4
20260507083059 53 41 2.0 16.0 0.00 0.01 0.01 85 1009.3
20260507082559 53 33 0.0 16.0 0.00 0.01 0.01 85 1009.3
20260507082059 53 13 2.0 13.0 0.00 0.01 0.01 85 1009.1
20260507081557 53 11 2.0 13.0 0.00 0.01 0.01 85 1009.0
20260507081059 53 34 3.0 13.0 0.00 0.01 0.01 86 1008.9
20260507080556 54 16 0.0 8.0 0.00 0.01 0.01 85 1009.0
20260507080054 54 41 0.0 10.0 0.00 0.01 0.01 86 1009.1
20260507075554 54 348 1.0 14.0 0.00 0.01 0.01 87 1009.0
20260507075051 55 28 2.0 14.0 0.00 0.01 0.01 88 1008.7
20260507074552 55 28 2.0 14.0 0.00 0.01 0.01 87 1008.7
20260507074049 55 15 4.0 15.0 0.01 0.01 0.01 86 1008.9
20260507073548 55 34 4.0 15.0 0.01 0.01 0.01 86 1008.3
20260507073052 56 342 4.0 14.0 0.01 0.01 0.01 87 1007.9
20260507072545 57 347 6.0 12.0 0.01 0.01 0.01 86 1008.0
20260507072043 58 15 3.0 12.0 0.01 0.01 0.01 87 1008.2
20260507071543 59 49 4.0 11.0 0.01 0.01 0.01 88 1008.3
20260507071041 60 5 2.0 10.0 0.01 0.01 0.01 88 1008.4
20260507070539 60 349 1.0 6.0 0.01 0.01 0.01 88 1008.4
20260507070048 61 30 0.0 9.0 0.01 0.01 0.01 89 1008.2
20260507065541 61 20 3.0 11.0 0.01 0.01 0.01 89 1007.9
20260507065037 62 83 2.0 12.0 0.01 0.01 0.01 88 1007.8
20260507064546 62 15 0.0 12.0 0.01 0.01 0.01 88 1007.7
20260507064041 62 53 0.0 0.0 0.00 0.00 0.00 88 1008.2
20260507063540 63 242 0.0 1.0 0.00 0.00 0.00 89 1008.1
20260507063138 63 36 0.0 1.0 0.00 0.00 0.00 89 1007.8
20260507062536 63 285 0.0 0.0 0.00 0.00 0.00 89 1007.7
20260507062037 63 5 0.0 0.0 0.00 0.00 0.00 89 1007.8
20260507061538 63 305 0.0 0.0 0.00 0.00 0.00 89 1007.9
20260507061035 63 272 0.0 5.0 0.00 0.00 0.00 88 1007.8
20260507060535 63 265 0.0 5.0 0.00 0.00 0.00 87 1007.7
20260507060035 63 248 0.0 4.0 0.00 0.00 0.00 87 1007.9
20260507055534 63 253 1.0 5.0 0.00 0.00 0.00 86 1008.0
20260507055034 64 280 1.0 5.0 0.00 0.00 0.00 85 1007.9
20260507054533 64 286 3.0 8.0 0.00 0.00 0.00 84 1008.2
20260507054034 64 222 0.0 8.0 0.00 0.00 0.00 84 1008.2
20260507053531 64 245 2.0 7.0 0.00 0.00 0.00 85 1008.0
20260507053030 64 263 0.0 9.0 0.00 0.00 0.00 85 1007.9
20260507052528 64 287 2.0 9.0 0.00 0.00 0.00 85 1007.7
20260507052028 64 270 0.0 6.0 0.00 0.00 0.00 85 1007.7
20260507051529 64 252 1.0 5.0 0.00 0.00 0.00 84 1007.6
20260507051027 64 229 2.0 9.0 0.00 0.00 0.00 84 1007.5
20260507050526 64 205 0.0 9.0 0.00 0.00 0.00 84 1007.7
20260507050029 64 261 2.0 8.0 0.00 0.00 0.00 84 1008.0
20260507045526 64 232 2.0 4.0 0.00 0.00 0.00 85 1008.1
20260507045024 64 275 1.0 3.0 0.00 0.00 0.00 85 1008.1
20260507044523 64 231 1.0 4.0 0.00 0.00 0.00 86 1008.2
20260507044024 64 266 1.0 4.0 0.00 0.00 0.00 86 1008.3
20260507043522 64 242 1.0 2.0 0.00 0.00 0.00 86 1008.1
20260507043021 63 246 0.0 2.0 0.00 0.00 0.00 87 1008.1
20260507042520 63 246 0.0 3.0 0.00 0.00 0.00 87 1008.1
20260507042021 62 238 1.0 3.0 0.00 0.00 0.00 88 1008.2
20260507041517 62 284 0.0 2.0 0.00 0.00 0.00 89 1008.3
20260507041017 62 266 0.0 2.0 0.00 0.00 0.00 89 1008.3
20260507040514 61 236 0.0 0.0 0.00 0.00 0.00 88 1008.2
20260507040014 61 236 0.0 1.0 0.00 0.00 0.00 88 1008.2
20260507035517 61 236 0.0 1.0 0.00 0.00 0.00 88 1008.3
20260507035013 61 236 0.0 1.0 0.00 0.00 0.00 88 1008.3
20260507034513 61 207 0.0 1.0 0.00 0.00 0.00 88 1008.3
20260507034013 61 206 0.0 1.0 0.00 0.00 0.00 88 1008.3
20260507033513 61 206 0.0 2.0 0.00 0.00 0.00 88 1008.2
20260507033013 60 206 1.0 2.0 0.00 0.00 0.00 88 1008.2
20260507032513 60 163 0.0 2.0 0.00 0.00 0.00 89 1008.0
20260507032012 60 163 0.0 1.0 0.00 0.00 0.00 89 1008.2
20260507031512 60 163 0.0 1.0 0.00 0.00 0.00 88 1008.1
20260507031016 60 163 0.0 2.0 0.00 0.00 0.00 88 1007.9
20260507030513 60 163 0.0 2.0 0.00 0.00 0.00 88 1007.9
20260507030010 60 191 0.0 1.0 0.00 0.00 0.00 88 1008.1
20260507025510 61 196 0.0 1.0 0.00 0.00 0.00 87 1008.1
20260507025013 61 279 0.0 1.0 0.00 0.00 0.00 87 1008.2
20260507024510 61 279 0.0 1.0 0.00 0.00 0.00 87 1008.2
20260507024009 61 279 0.0 1.0 0.00 0.00 0.00 87 1008.4
20260507023509 61 279 0.0 1.0 0.00 0.00 0.00 87 1008.4
20260507023011 61 279 0.0 1.0 0.00 0.00 0.00 86 1008.5
20260507022509 61 279 0.0 1.0 0.00 0.00 0.00 86 1008.6
20260507022011 62 279 0.0 0.0 0.00 0.00 0.00 86 1008.8
20260507021509 62 279 0.0 1.0 0.00 0.00 0.00 86 1009.0
20260507021009 62 279 0.0 1.0 0.00 0.00 0.00 86 1009.1
20260507020508 62 279 0.0 2.0 0.00 0.00 0.00 85 1009.0
20260507020010 62 259 0.0 2.0 0.00 0.00 0.00 85 1008.9
20260507015508 62 259 0.0 1.0 0.00 0.00 0.00 85 1009.0
20260507015008 62 252 0.0 1.0 0.00 0.00 0.00 85 1008.8
20260507014510 62 248 0.0 2.0 0.00 0.00 0.00 85 1008.8
20260507014010 62 248 0.0 2.0 0.00 0.00 0.00 84 1008.5
20260507013508 63 248 0.0 2.0 0.00 0.00 0.00 84 1008.9
20260507013008 63 248 0.0 2.0 0.00 0.00 0.00 84 1008.9
20260507012508 63 241 0.0 2.0 0.00 0.00 0.00 84 1009.0
20260507012007 63 247 0.0 2.0 0.00 0.00 0.00 84 1009.0
20260507011521 63 239 0.0 3.0 0.00 0.00 0.00 84 1009.2
20260507011009 63 225 1.0 3.0 0.00 0.00 0.00 84 1009.1
20260507010510 63 221 1.0 4.0 0.00 0.00 0.00 83 1009.1
20260507010005 63 230 1.0 4.0 0.00 0.00 0.00 83 1009.2
20260507005508 63 270 1.0 3.0 0.00 0.00 0.00 83 1008.9
20260507005007 64 219 1.0 4.0 0.00 0.00 0.00 82 1009.0
20260507004505 64 301 1.0 5.0 0.00 0.00 0.00 83 1008.9
20260507004005 64 232 2.0 5.0 0.00 0.00 0.00 83 1008.7
20260507003507 64 242 2.0 6.0 0.00 0.00 0.00 83 1008.7
20260507003004 63 240 3.0 6.0 0.00 0.00 0.00 83 1008.4
20260507002504 63 219 2.0 4.0 0.00 0.00 0.00 83 1008.4
20260507002004 64 228 1.0 4.0 0.00 0.00 0.00 82 1008.4
20260507001503 64 236 2.0 4.0 0.00 0.00 0.00 82 1008.3
20260507001006 64 220 1.0 4.0 0.00 0.00 0.00 81 1008.4
20260507000504 64 229 2.0 4.0 0.00 0.00 0.00 81 1008.3
20260507000003 65 233 1.0 4.0 0.00 0.00 0.00 80 1008.3
20260506235504 65 227 2.0 4.0 0.00 0.00 0.00 80 1008.4
20260506235003 65 223 2.0 4.0 0.00 0.00 0.00 80 1008.4
20260506234504 65 246 1.0 8.0 0.00 0.00 0.00 79 1008.4
20260506234002 66 229 2.0 8.0 0.00 0.00 0.00 79 1008.4
20260506233503 66 246 3.0 6.0 0.00 0.00 0.00 78 1008.5
20260506233002 66 236 3.0 7.0 0.00 0.00 0.00 78 1008.4
20260506232501 66 236 3.0 8.0 0.00 0.00 0.00 78 1008.4
20260506232001 67 255 2.0 9.0 0.00 0.00 0.00 78 1008.4
20260506231501 67 232 2.0 7.0 0.00 0.00 0.00 77 1008.4
20260506231001 67 234 3.0 7.0 0.00 0.00 0.00 77 1008.5
20260506230501 67 221 0.0 7.0 0.00 0.00 0.00 77 1008.4
20260506230001 67 248 1.0 7.0 0.00 0.00 0.00 77 1008.5
20260506225604 67 209 0.0 10.0 0.00 0.00 0.00 77 1008.5
20260506225100 67 206 0.0 10.0 0.00 0.00 0.00 77 1008.5
20260506224607 67 263 2.0 8.0 0.00 0.00 0.00 77 1008.4
20260506224059 67 227 2.0 8.0 0.00 0.00 0.00 77 1008.1
20260506223559 67 235 3.0 8.0 0.00 0.00 0.00 77 1008.2
20260506223100 67 194 0.0 5.0 0.00 0.00 0.00 76 1008.3
20260506222559 67 256 0.0 8.0 0.00 0.00 0.00 76 1008.2
20260506222100 67 219 1.0 9.0 0.00 0.00 0.00 76 1008.3
20260506221559 67 246 3.0 9.0 0.00 0.00 0.00 76 1008.2
20260506221058 67 223 2.0 7.0 0.00 0.00 0.00 76 1008.3
20260506220558 67 248 0.0 1.0 0.00 0.00 0.00 76 1008.3
20260506215558 67 254 3.0 12.0 0.00 0.00 0.00 75 1008.3
20260506215057 68 248 2.0 8.0 0.00 0.00 0.00 75 1008.2
20260506214559 68 235 5.0 9.0 0.00 0.00 0.00 75 1008.2
20260506214057 68 225 5.0 9.0 0.00 0.00 0.00 75 1008.2
20260506213558 68 216 0.0 3.0 0.00 0.00 0.00 75 1008.1
20260506213101 68 239 0.0 1.0 0.00 0.00 0.00 75 1008.0
20260506212557 68 211 0.0 1.0 0.00 0.00 0.00 75 1008.0
20260506212058 68 244 0.0 14.0 0.00 0.00 0.00 75 1007.9
20260506211557 68 225 0.0 14.0 0.00 0.00 0.00 74 1007.8
20260506211056 68 236 8.0 18.0 0.00 0.00 0.00 73 1007.8
20260506210557 69 279 8.0 16.0 0.00 0.00 0.00 72 1007.7
20260506210056 70 213 10.0 16.0 0.00 0.00 0.00 71 1007.7
20260506205555 70 226 7.0 16.0 0.00 0.00 0.00 72 1007.6
20260506205055 70 213 9.0 18.0 0.00 0.00 0.00 72 1007.6
20260506204556 70 217 10.0 18.0 0.00 0.00 0.00 73 1007.5
20260506204055 69 247 9.0 18.0 0.00 0.00 0.00 73 1007.4
20260506203554 69 209 8.0 18.0 0.00 0.00 0.00 73 1007.4
20260506203054 68 229 10.0 16.0 0.00 0.00 0.00 73 1007.5
20260506202554 68 240 9.0 17.0 0.00 0.00 0.00 74 1007.5
20260506202053 68 217 7.0 17.0 0.00 0.00 0.00 74 1007.6
20260506201556 68 238 9.0 18.0 0.00 0.00 0.00 74 1007.6
20260506201052 68 235 10.0 18.0 0.00 0.00 0.00 74 1007.7
20260506200552 67 222 6.0 12.0 0.00 0.00 0.00 74 1007.7
20260506200051 67 217 7.0 17.0 0.00 0.00 0.00 74 1007.8
20260506195551 68 225 8.0 17.0 0.00 0.00 0.00 74 1007.9
20260506195050 68 195 9.0 16.0 0.00 0.00 0.00 74 1007.9
20260506194551 68 228 10.0 20.0 0.00 0.00 0.00 74 1007.9
20260506194051 68 218 11.0 20.0 0.00 0.00 0.00 74 1008.0
20260506193553 67 238 10.0 18.0 0.00 0.00 0.00 74 1008.1
20260506193048 67 230 10.0 19.0 0.00 0.00 0.00 74 1008.2
20260506192547 67 235 9.0 20.0 0.00 0.00 0.00 74 1008.4
20260506192048 67 236 10.0 20.0 0.00 0.00 0.00 74 1008.4
20260506191548 67 232 11.0 19.0 0.00 0.00 0.00 74 1008.4
20260506191047 67 228 11.0 22.0 0.00 0.00 0.00 74 1008.4
20260506190547 68 219 13.0 23.0 0.00 0.00 0.00 73 1008.6
20260506190049 68 223 13.0 23.0 0.00 0.00 0.00 73 1008.4
20260506185545 68 219 13.0 23.0 0.00 0.00 0.00 73 1008.5
20260506185044 68 190 12.0 23.0 0.00 0.00 0.00 73 1008.6
20260506184549 68 229 12.0 23.0 0.00 0.00 0.00 73 1008.7
20260506184043 68 241 12.0 23.0 0.00 0.00 0.00 73 1008.8
20260506183545 68 238 13.0 25.0 0.00 0.00 0.00 72 1008.8
20260506183042 69 215 15.0 24.0 0.00 0.00 0.00 71 1008.9
20260506182541 69 237 14.0 25.0 0.00 0.00 0.00 71 1008.8
20260506182041 68 240 12.0 19.0 0.00 0.00 0.00 72 1008.9
20260506181541 68 219 11.0 19.0 0.00 0.00 0.00 73 1008.9
20260506181040 67 245 11.0 16.0 0.00 0.00 0.00 74 1009.0
20260506180539 67 184 9.0 17.0 0.00 0.00 0.00 75 1008.9
20260506180043 66 234 8.0 19.0 0.00 0.00 0.00 76 1009.0
20260506175539 66 201 7.0 19.0 0.00 0.00 0.00 77 1009.0
20260506175038 65 217 6.0 16.0 0.00 0.00 0.00 78 1009.2
20260506174537 66 238 7.0 16.0 0.00 0.00 0.00 76 1009.2
20260506174038 66 207 8.0 16.0 0.00 0.00 0.00 76 1009.4
20260506173538 66 219 6.0 14.0 0.00 0.00 0.00 75 1009.4
20260506173058 66 198 7.0 20.0 0.00 0.00 0.00 74 1009.4
20260506172537 67 222 8.0 13.0 0.00 0.00 0.00 73 1009.4
20260506172037 67 168 7.0 19.0 0.00 0.00 0.00 73 1009.3
20260506171537 67 228 8.0 19.0 0.00 0.00 0.00 73 1009.3
20260506171038 67 240 8.0 16.0 0.00 0.00 0.00 74 1009.4
20260506170536 67 192 9.0 19.0 0.00 0.00 0.00 73 1009.5
20260506170039 67 232 10.0 18.0 0.00 0.00 0.00 72 1009.4
20260506165533 68 240 9.0 18.0 0.00 0.00 0.00 71 1009.8
20260506165033 68 218 0.0 3.0 0.00 0.00 0.00 70 1009.9
20260506164534 69 227 0.0 3.0 0.00 0.00 0.00 70 1010.1
20260506164031 69 248 0.0 0.0 0.00 0.00 0.00 69 1010.2
20260506163535 69 225 0.0 0.0 0.00 0.00 0.00 69 1010.3
20260506163037 69 233 0.0 0.0 0.00 0.00 0.00 69 1010.4
20260506162530 69 223 0.0 0.0 0.00 0.00 0.00 68 1010.4
20260506162033 69 209 0.0 0.0 0.00 0.00 0.00 69 1010.5
20260506161530 69 207 0.0 0.0 0.00 0.00 0.00 69 1010.4
20260506161031 69 219 0.0 0.0 0.00 0.00 0.00 69 1010.5
20260506160529 69 225 0.0 0.0 0.00 0.00 0.00 68 1010.5
20260506160030 69 206 0.0 0.0 0.00 0.00 0.00 68 1010.5
20260506155528 69 213 0.0 0.0 0.00 0.00 0.00 69 1010.4
20260506155028 69 213 0.0 0.0 0.00 0.00 0.00 68 1010.6
20260506154527 70 218 0.0 0.0 0.00 0.00 0.00 68 1010.6
20260506154027 70 202 0.0 0.0 0.00 0.00 0.00 68 1010.7
20260506153528 70 213 0.0 0.0 0.00 0.00 0.00 67 1010.7
20260506153028 70 217 0.0 0.0 0.00 0.00 0.00 68 1010.7
20260506152528 70 248 0.0 0.0 0.00 0.00 0.00 67 1010.7
20260506152027 71 209 0.0 0.0 0.00 0.00 0.00 69 1010.8